Location: Proctor
(47.8934°N, 114.3048°W)
Time: 12:05:36
(UTC+00:00)

AO-91 - Pass Details

Date: 27 June 2022
Orbit: 450 x 797 km, 97.7° (Epoch: 11 August)

Event Time Altitude Azimuth Distance (km) Brightness Sun altitude
Rises 06:05:48 0° 19° (NNE) 2,606 ? -15.7°
Reaches altitude 10° 06:08:02 10° 27° (NNE) 1,676 ? -15.8°
Maximum altitude 06:11:25 40° 98° (E) 696 ? -16.0°
Enters shadow 06:12:12 34° 133° (SE) 775 ? -16.1°
